Corpus Christi NAS, TX

9:29 AM CDT on September 22, 2017 (GMT -0500)
Corpus Christi Naval Air Station-Truax

Weather History for KNGP - July, 2013

Change the Weather History Date:

Saturday, July 20, 2013

  Actual Average Record
Temperature  
Mean Temperature 84 °F -  
Max Temperature 89 °F 88 °F 93 °F (1996)
Min Temperature 79 °F 76 °F 42 °F (1997)
Cooling Degree Days 18    
Growing Degree Days 34 (Base 50)    
Moisture  
Dew Point 76 °F    
Average Humidity 76    
Maximum Humidity 90    
Minimum Humidity 65    
Precipitation  
Precipitation 0.00 in - - ()
Sea Level Pressure  
Sea Level Pressure 29.92 in    
Wind  
Wind Speed 10 mph (SE)    
Max Wind Speed 15 mph    
Max Gust Speed 23 mph    
Visibility 9 miles    
Events      
Averages and records for this station are not official NWS values.
T = Trace of Precipitation, MM = Missing Value Source: NWS Daily Summary

Daily Weather History Graph

Daily Weather History Graph

Search for Another Location

Airport or City:

Trip Planner

Search our weather history database for the weather conditions in past years. The results will help you decide how hot, cold, wet, or windy it might be!

Date:

Astronomy

Jul. 20, 2013 Rise Set
Actual Time 6:45 AM CDT 8:24 PM CDT
Civil Twilight 6:20 AM CDT 8:50 PM CDT
Nautical Twilight 5:49 AM CDT 9:21 PM CDT
Astronomical Twilight 5:16 AM CDT 9:54 PM CDT
Moon 6:30 PM CDT (7/20) 4:26 AM CDT (7/20)
Length of Visible Light 14h 30m
Length of Day
13h 38m
Waxing Gibbous, 94% of the Moon is Illuminated
Jul 20
Waxing Gibbous
Jul 22
Full
Jul 29
Last Quarter
Aug 6
New
Aug 14
First Quarter

Hourly Weather History & Observations

Time (CDT) Temp. Heat Index Dew Point Humidity Pressure Visibility Wind Dir Wind Speed Gust Speed Precip Events Conditions
12:56 AM 81.0 °F 87.3 °F 75.9 °F 85% 29.97 in 10.0 mi SE 6.9 mph - N/A   Partly Cloudy
1:56 AM 81.0 °F 86.7 °F 75.0 °F 82% 29.96 in 10.0 mi SSE 6.9 mph - N/A   Partly Cloudy
2:56 AM 80.1 °F 85.4 °F 75.9 °F 87% 29.94 in 10.0 mi SSE 6.9 mph - N/A   Clear
3:56 AM 80.1 °F 85.4 °F 75.9 °F 87% 29.93 in 10.0 mi SE 8.1 mph - N/A   Clear
4:56 AM 79.0 °F - 75.9 °F 90% 29.92 in 10.0 mi SE 6.9 mph - N/A   Partly Cloudy
5:56 AM 80.1 °F 85.1 °F 75.0 °F 85% 29.92 in 10.0 mi SE 6.9 mph - N/A   Clear
6:56 AM 80.1 °F 85.1 °F 75.0 °F 85% 29.93 in 10.0 mi SE 8.1 mph - N/A   Clear
7:56 AM 82.9 °F 90.2 °F 75.0 °F 77% 29.94 in 10.0 mi SE 8.1 mph - N/A   Clear
8:56 AM 84.9 °F 93.3 °F 75.0 °F 72% 29.95 in 10.0 mi SE 8.1 mph - N/A   Partly Cloudy
9:56 AM 84.9 °F 93.3 °F 75.0 °F 72% 29.95 in 10.0 mi ESE 10.4 mph - N/A   Scattered Clouds
10:48 AM 86.0 °F 95.1 °F 75.2 °F 70% 29.94 in 1.2 mi ESE 11.5 mph - N/A   Haze
10:56 AM 87.1 °F 97.3 °F 75.9 °F 69% 29.95 in 1.2 mi ESE 11.5 mph - N/A   Haze
11:03 AM 87.8 °F 97.6 °F 75.2 °F 66% 29.95 in 10.0 mi ESE 11.5 mph - N/A   Clear
11:56 AM 86.0 °F 95.1 °F 75.0 °F 70% 29.95 in 10.0 mi ESE 15.0 mph - N/A   Clear
12:56 PM 87.1 °F 96.3 °F 75.0 °F 67% 29.94 in 10.0 mi SE 15.0 mph - N/A   Partly Cloudy
1:56 PM 88.0 °F 98.5 °F 75.9 °F 67% 29.93 in 10.0 mi SE 13.8 mph - N/A   Partly Cloudy
2:56 PM 88.0 °F 100.2 °F 77.0 °F 70% 29.90 in 10.0 mi ESE 15.0 mph - N/A   Clear
3:56 PM 88.0 °F 97.5 °F 75.0 °F 65% 29.89 in 10.0 mi SE 13.8 mph - N/A   Clear
4:56 PM 88.0 °F 97.5 °F 75.0 °F 65% 29.87 in 10.0 mi SE 13.8 mph - N/A   Clear
5:56 PM 87.1 °F 96.3 °F 75.0 °F 67% 29.87 in 10.0 mi ESE 15.0 mph - N/A   Clear
6:56 PM 84.9 °F 93.3 °F 75.0 °F 72% 29.87 in 10.0 mi SE 15.0 mph - N/A   Partly Cloudy
7:56 PM 82.9 °F 90.8 °F 75.9 °F 79% 29.87 in 10.0 mi SE 13.8 mph - N/A   Partly Cloudy
8:56 PM 82.0 °F 90.2 °F 77.0 °F 85% 29.86 in 10.0 mi SSE 13.8 mph - N/A   Partly Cloudy
9:56 PM 82.0 °F 89.4 °F 75.9 °F 82% 29.88 in 10.0 mi SSE 15.0 mph 23.0 mph N/A   Partly Cloudy
10:56 PM 82.0 °F 90.2 °F 77.0 °F 85% 29.92 in 10.0 mi SSE 12.7 mph - N/A   Mostly Cloudy
11:56 PM 82.9 °F 91.8 °F 77.0 °F 82% 29.92 in 10.0 mi South 13.8 mph - N/A   Partly Cloudy